LAMPTON Weather Reports


Display with metric or nautical units.
time (UTC)temp
F
wind
direction
speed
MPH
gust
MPH
rain 1hr
in
rain 24hr
in
rain mn
in
humidity
%
barometer
mb
20260507170033 59 290 5.0 12.0 0.00 0.23 0.01 41 1006.4
20260507164546 59 23 3.0 13.0 0.00 0.23 0.01 41 1006.7
20260507163032 59 309 2.0 17.0 0.00 0.23 0.01 42 1006.7
20260507161540 59 359 5.0 12.0 0.00 0.23 0.01 47 1006.8
20260507160038 58 233 6.0 15.0 0.00 0.23 0.01 47 1006.9
20260507154535 58 300 2.0 13.0 0.00 0.23 0.01 56 1006.9
20260507153030 56 255 3.0 10.0 0.00 0.23 0.01 61 1007.1
20260507151539 56 275 1.0 10.0 0.00 0.23 0.01 65 1007.2
20260507150034 56 299 1.0 7.0 0.00 0.23 0.01 62 1007.3
20260507144534 55 329 1.0 6.0 0.00 0.23 0.01 66 1007.6
20260507143040 57 248 2.0 7.0 0.00 0.23 0.01 61 1007.4
20260507141537 56 343 1.0 7.0 0.00 0.23 0.01 63 1007.4
20260507140035 55 217 3.0 10.0 0.00 0.23 0.01 64 1007.3
20260507134545 55 312 4.0 10.0 0.00 0.23 0.01 57 1007.3
20260507133034 55 325 2.0 9.0 0.00 0.23 0.01 62 1007.6
20260507131538 54 293 3.0 7.0 0.00 0.23 0.01 63 1007.8
20260507130039 53 290 2.0 8.0 0.00 0.23 0.01 71 1007.9
20260507124537 52 241 4.0 7.0 0.00 0.23 0.01 73 1007.9
20260507123037 52 332 4.0 9.0 0.00 0.23 0.01 70 1007.9
20260507121533 51 146 1.0 7.0 0.00 0.23 0.01 80 1007.9
20260507120032 48 0 2.0 9.0 0.00 0.23 0.01 84 1007.9
20260507114535 47 312 1.0 7.0 0.00 0.23 0.01 85 1007.9
20260507113033 48 276 1.0 5.0 0.00 0.23 0.01 86 1007.8
20260507111532 47 330 0.0 4.0 0.00 0.23 0.01 86 1007.8
20260507110046 47 274 0.0 4.0 0.00 0.23 0.01 86 1007.8
20260507104530 47 304 1.0 5.0 0.00 0.23 0.01 86 1007.4
20260507103033 47 316 1.0 3.0 0.00 0.23 0.01 87 1007.3
20260507101540 47 0 0.0 5.0 0.00 0.23 0.01 87 1007.1
20260507100037 47 345 0.0 6.0 0.00 0.23 0.01 87 1006.9
20260507094533 47 342 0.0 5.0 0.00 0.23 0.01 86 1007.5
20260507093030 46 0 0.0 2.0 0.00 0.23 0.01 85 1007.4
20260507091538 46 262 0.0 5.0 0.00 0.23 0.01 85 1007.1
20260507090039 46 277 0.0 6.0 0.00 0.23 0.01 86 1007.3
20260507084538 46 290 0.0 2.0 0.01 0.23 0.01 86 1007.6
20260507083038 47 298 2.0 4.0 0.01 0.23 0.01 87 1006.9
20260507081538 47 335 2.0 6.0 0.01 0.23 0.01 87 1007.0
20260507080036 48 0 2.0 6.0 0.01 0.23 0.01 86 1006.7
20260507074543 49 319 2.0 7.0 0.00 0.22 0.00 86 1007.1
20260507073032 49 240 2.0 7.0 0.00 0.22 0.00 86 1006.7
20260507071533 49 0 1.0 8.0 0.00 0.22 0.00 86 1006.5
20260507070036 49 0 1.0 4.0 0.00 0.22 0.00 86 1006.8
20260507064537 49 0 0.0 3.0 0.00 0.22 0.00 86 1006.2
20260507063037 50 223 0.0 4.0 0.00 0.22 0.00 86 1006.5
20260507061534 50 303 1.0 6.0 0.00 0.22 0.00 86 1006.2
20260507060039 50 0 1.0 6.0 0.00 0.22 0.00 86 1006.3
20260507054532 50 0 1.0 8.0 0.00 0.22 0.00 85 1006.6
20260507053032 50 321 1.0 8.0 0.00 0.22 0.00 85 1006.9
20260507051539 50 329 2.0 8.0 0.00 0.22 0.00 86 1006.7
20260507050041 51 0 1.0 10.0 0.00 0.22 0.00 86 1006.5
20260507044534 51 307 3.0 8.0 0.00 0.22 0.00 85 1006.6
20260507043032 51 343 1.0 4.0 0.00 0.22 0.00 83 1006.5
20260507041533 52 67 2.0 10.0 0.00 0.22 0.00 83 1006.8
20260507040034 53 309 3.0 10.0 0.00 0.22 0.00 83 1006.7
20260507034552 54 0 1.0 7.0 0.00 0.22 0.22 81 1006.3
20260507033041 55 0 0.0 9.0 0.01 0.22 0.22 81 1006.0
20260507031535 56 0 1.0 9.0 0.01 0.22 0.22 78 1005.6
20260507030036 57 278 3.0 10.0 0.01 0.22 0.22 74 1005.8
20260507024548 57 303 2.0 8.0 0.01 0.22 0.22 74 1005.5
20260507023037 57 231 2.0 5.0 0.00 0.21 0.21 74 1005.4
20260507021545 57 267 2.0 7.0 0.00 0.21 0.21 74 1005.1
20260507020035 57 0 2.0 9.0 0.00 0.21 0.21 74 1005.2
20260507014540 57 202 1.0 9.0 0.00 0.21 0.21 74 1005.3
20260507013034 57 177 3.0 7.0 0.00 0.21 0.21 74 1005.3
20260507011540 57 0 2.0 11.0 0.00 0.21 0.21 74 1005.4
20260507010032 57 168 1.0 7.0 0.00 0.21 0.21 74 1005.4
20260507004531 57 243 5.0 11.0 0.00 0.21 0.21 74 1005.5
20260507003034 57 0 3.0 13.0 0.00 0.21 0.21 75 1005.2
20260507001541 57 0 1.0 6.0 0.01 0.21 0.21 75 1005.2
20260507000033 57 238 2.0 10.0 0.04 0.21 0.21 75 1005.1
20260506234532 57 326 2.0 9.0 0.06 0.21 0.21 75 1005.0
20260506233033 57 197 2.0 9.0 0.07 0.21 0.21 75 1005.1
20260506231533 57 146 1.0 9.0 0.06 0.20 0.20 76 1005.1
20260506230042 57 198 3.0 10.0 0.04 0.17 0.17 76 1005.3
20260506224534 57 290 2.0 9.0 0.03 0.15 0.15 77 1005.3
20260506223032 57 177 2.0 8.0 0.03 0.14 0.14 77 1005.3
20260506221537 58 250 1.0 10.0 0.03 0.14 0.14 78 1005.4
20260506220040 58 147 2.0 9.0 0.03 0.13 0.13 78 1005.6
20260506214537 58 236 1.0 8.0 0.03 0.12 0.12 79 1005.5
20260506213036 58 185 2.0 13.0 0.04 0.11 0.11 79 1005.7
20260506211540 58 238 4.0 10.0 0.05 0.11 0.11 80 1005.9
20260506210032 59 156 5.0 16.0 0.05 0.10 0.10 81 1006.0
20260506204533 59 166 3.0 13.0 0.04 0.09 0.09 81 1006.2
20260506203032 60 280 2.0 10.0 0.02 0.07 0.07 82 1006.1
20260506201532 61 0 2.0 7.0 0.02 0.06 0.06 83 1006.3
20260506200032 61 156 1.0 8.0 0.02 0.05 0.05 83 1006.2
20260506194538 62 169 1.0 11.0 0.03 0.05 0.05 84 1006.3
20260506193034 62 181 0.0 8.0 0.04 0.05 0.05 83 1006.2
20260506191534 62 0 0.0 1.0 0.04 0.04 0.04 83 1006.0
20260506190032 63 0 1.0 3.0 0.03 0.03 0.03 84 1006.5
20260506184531 64 300 2.0 6.0 0.01 0.01 0.01 82 1006.6
20260506183034 66 263 1.0 9.0 0.00 0.00 0.00 77 1006.7
20260506181536 68 259 3.0 13.0 0.00 0.00 0.00 68 1006.7
20260506180033 69 239 4.0 15.0 0.00 0.00 0.00 64 1006.4
20260506174534 71 242 6.0 15.0 0.00 0.00 0.00 64 1006.7
20260506173032 71 224 4.0 21.0 0.00 0.00 0.00 63 1006.5
20260506171533 72 228 6.0 23.0 0.00 0.00 0.00 63 1006.7